Chicago Midway, IL

3:52 AM CST on December 15, 2019 (GMT -0600)
Chicago-Midway

Weather History for KMDW - October, 2019

Change the Weather History Date:

Wednesday, October 2, 2019

  Actual Average Record
Temperature  
Mean Temperature 71 °F 59 °F  
Max Temperature 81 °F 68 °F 91 °F (1971)
Min Temperature 60 °F 50 °F 28 °F (1974)
Degree Days  
Heating Degree Days 0 7  
Month to date heating degree days 0 14  
Since 1 July heating degree days 1 96  
Cooling Degree Days 6 1  
Month to date cooling degree days 21 2  
Year to date cooling degree days 1131 1031  
Growing Degree Days 20 (Base 50)    
Moisture  
Dew Point 61 °F    
Average Humidity 92    
Maximum Humidity 100    
Minimum Humidity 65    
Precipitation  
Precipitation 0.41 in 0.09 in 3.80 in (2006)
Month to date precipitation 0.41 0.19  
Year to date precipitation 38.23 30.05  
Sea Level Pressure  
Sea Level Pressure 29.90 in    
Wind  
Wind Speed 9 mph (North)    
Max Wind Speed 21 mph    
Max Gust Speed 27 mph    
Visibility 5 miles    
Events Rain , Thunderstorm    
T = Trace of Precipitation, MM = Missing Value Source: NWS Daily Summary

Daily Weather History Graph

Daily Weather History Graph

Search for Another Location

Airport or City:

Astronomy

Oct. 02, 2019 Rise Set
Actual Time 6:48 AM CDT 6:31 PM CDT
Civil Twilight 6:20 AM CDT 6:59 PM CDT
Nautical Twilight 5:48 AM CDT 7:31 PM CDT
Astronomical Twilight 5:16 AM CDT 8:03 PM CDT
Moon 11:17 AM CDT (10/2) 9:21 PM CDT (10/2)
Length of Visible Light 12h 38m
Length of Day
11h 42m
Waxing Crescent, 20% of the Moon is Illuminated
Oct 2
Waxing Crescent
Oct 5
First Quarter
Oct 13
Full
Oct 21
Last Quarter
Oct 27
New

Hourly Weather History & Observations

Time (CDT) Temp. Heat Index Dew Point Humidity Pressure Visibility Wind Dir Wind Speed Gust Speed Precip Events Conditions
12:53 AM 81.0 °F 83.8 °F 68.0 °F 65% 29.83 in 10.0 mi WSW 8.1 mph - N/A   Overcast
1:26 AM 70.0 °F - 63.0 °F 78% 29.89 in 10.0 mi NNE 13.8 mph 26.5 mph N/A   Overcast
1:53 AM 70.0 °F - 64.0 °F 81% 29.85 in 10.0 mi NE 4.6 mph - N/A   Overcast
2:53 AM 69.1 °F - 64.0 °F 84% 29.83 in 10.0 mi East 9.2 mph - 0.00 in   Overcast
3:53 AM 69.1 °F - 64.9 °F 87% 29.82 in 10.0 mi SE 4.6 mph - N/A   Overcast
4:53 AM 70.0 °F - 66.0 °F 87% 29.82 in 10.0 mi East 5.8 mph - 0.00 in   Overcast
5:53 AM 71.1 °F - 66.9 °F 87% 29.83 in 10.0 mi North 9.2 mph - 0.00 in   Overcast
6:18 AM 63.0 °F - 61.0 °F 93% 29.88 in 9.0 mi North 12.7 mph 24.2 mph 0.00 in Rain Light Rain
6:53 AM 62.1 °F - 60.1 °F 93% 29.84 in 10.0 mi NNE 9.2 mph - 0.00 in   Overcast
7:27 AM 61.0 °F - 60.1 °F 97% 29.88 in 2.0 mi North 9.2 mph - 0.03 in Rain Light Rain
7:32 AM 61.0 °F - 59.0 °F 93% 29.88 in 4.0 mi North 8.1 mph - 0.03 in Rain Light Rain
7:53 AM 61.0 °F - 59.0 °F 93% 29.86 in 6.0 mi NNE 10.4 mph - 0.03 in Rain Light Rain
8:53 AM 60.1 °F - 57.9 °F 93% 29.88 in 7.0 mi North 12.7 mph - 0.01 in   Overcast
9:43 AM 60.1 °F - 57.9 °F 93% 29.91 in 2.5 mi North 13.8 mph - 0.00 in Rain Light Rain
9:53 AM 60.1 °F - 57.9 °F 93% 29.88 in 2.0 mi North 11.5 mph - 0.01 in Rain Light Rain
10:28 AM 60.1 °F - 59.0 °F 96% 29.92 in 3.0 mi North 13.8 mph - 0.00 in   Overcast
10:44 AM 61.0 °F - 59.0 °F 93% 29.92 in 1.8 mi North 13.8 mph - 0.00 in Rain Light Rain
10:53 AM 60.1 °F - 59.0 °F 96% 29.90 in 1.5 mi North 12.7 mph - 0.00 in Rain Light Rain
11:08 AM 60.1 °F - 59.0 °F 96% 29.93 in 2.5 mi North 10.4 mph - 0.00 in   Overcast
11:12 AM 60.1 °F - 59.0 °F 96% 29.93 in 3.0 mi North 12.7 mph - 0.00 in   Overcast
11:37 AM 61.0 °F - 60.1 °F 97% 29.93 in 2.5 mi North 9.2 mph - 0.00 in Rain Light Rain
11:53 AM 61.0 °F - 60.1 °F 97% 29.91 in 3.0 mi North 10.4 mph - 0.00 in   Overcast
12:53 PM 62.1 °F - 59.0 °F 90% 29.92 in 6.0 mi North 10.4 mph - N/A   Overcast
1:53 PM 62.1 °F - 60.1 °F 93% 29.92 in 6.0 mi North 10.4 mph - N/A   Overcast
2:53 PM 62.1 °F - 59.0 °F 90% 29.93 in 5.0 mi North 11.5 mph - N/A   Overcast
3:53 PM 62.1 °F - 59.0 °F 90% 29.96 in 5.0 mi North 12.7 mph - 0.00 in   Overcast
4:53 PM 61.0 °F - 59.0 °F 93% 29.94 in 4.0 mi NNE 11.5 mph - N/A   Overcast
5:53 PM 61.0 °F - 59.0 °F 93% 29.97 in 6.0 mi North 10.4 mph - N/A   Overcast
6:53 PM 60.1 °F - 59.0 °F 96% 29.96 in 3.0 mi Variable 5.8 mph - 0.02 in Rain Light Rain
7:53 PM 61.0 °F - 60.1 °F 97% 29.94 in 6.0 mi NNW 4.6 mph - 0.01 in   Overcast
8:41 PM 61.0 °F - 61.0 °F 100% 29.92 in 1.5 mi North 4.6 mph - 0.00 in Rain Light Rain
8:53 PM 62.1 °F - 61.0 °F 96% 29.91 in 1.5 mi North 4.6 mph - 0.00 in   Light Drizzle
9:53 PM 63.0 °F - 62.1 °F 97% 29.90 in 1.8 mi NNE 6.9 mph - 0.00 in   Light Drizzle
10:53 PM 63.0 °F - 62.1 °F 97% 29.88 in 1.8 mi NNE 5.8 mph - 0.00 in   Overcast
11:30 PM 62.1 °F - 61.0 °F 96% 29.92 in 5.0 mi NNW 10.4 mph - 0.10 in Rain Light Rain
11:47 PM 62.6 °F - 62.6 °F 100% 29.90 in 5.0 mi South 3.5 mph - 0.12 in Rain , Thunderstorm Light Thunderstorms and Rain
11:53 PM 63.0 °F - 61.0 °F 93% 29.90 in 3.0 mi South 5.8 mph - 0.14 in Rain , Thunderstorm Light Thunderstorms and Rain